Date,TemperatureHighF,TemperatureAvgF,TemperatureLowF,DewpointHighF,DewpointAvgF,DewpointLowF,HumidityHigh,HumidityAvg,HumidityLow,PressureMaxIn,PressureMinIn,WindSpeedMaxMPH,WindSpeedAvgMPH,GustSpeedMaxMPH,PrecipitationSumIn
2013-4-1,61,45,33,43,35,10,92,70,33,29.79,29.49,22,7,22,0.14
2013-4-2,40,34,29,16,12,9,53,41,30,29.90,29.76,30,11,30,0.16
2013-4-3,48,36,29,16,12,5,55,38,20,30.11,29.88,27,11,27,0.02
2013-4-4,58,42,30,25,15,9,56,36,17,30.27,30.00,18,6,18,0.00
2013-4-5,58,44,37,38,27,21,66,51,28,30.01,29.63,16,5,17,0.00
2013-4-6,52,38,30,22,11,3,54,35,15,30.34,29.87,24,7,24,0.13
2013-4-7,54,41,26,36,27,14,72,58,30,30.34,29.98,18,5,18,0.00
2013-4-8,69,49,42,42,38,33,85,69,30,30.12,29.93,10,4,10,0.00
2013-4-9,68,49,41,53,40,36,89,74,43,30.11,29.87,13,3,13,0.04
2013-4-10,52,46,42,45,41,38,90,85,75,30.01,29.87,8,2,8,0.23
2013-4-11,51,44,40,44,38,29,92,79,61,30.16,29.84,9,2,9,0.05
2013-4-12,41,38,36,35,31,27,93,78,60,30.21,29.82,17,6,17,0.21
2013-4-13,46,39,34,39,35,31,93,84,71,29.92,29.77,9,3,9,0.03
2013-4-14,54,46,38,37,32,26,87,58,37,30.21,29.92,17,6,17,0.00
2013-4-15,56,43,33,41,35,28,86,74,45,30.40,30.20,12,4,12,0.00
2013-4-16,65,50,38,48,40,32,84,71,46,30.41,30.02,16,6,16,0.00
2013-4-17,75,58,43,50,37,27,78,50,22,30.34,30.02,14,5,14,0.00
2013-4-18,54,46,36,40,36,30,80,69,57,30.46,30.16,14,4,14,0.00
2013-4-19,77,60,45,60,52,40,94,77,51,30.16,29.64,17,6,17,0.00
2013-4-20,66,53,42,60,39,22,90,62,34,30.19,29.59,20,8,20,0.18
2013-4-21,58,43,33,30,23,18,71,48,24,30.69,30.19,19,5,19,0.00
2013-4-22,54,42,31,36,31,25,81,65,47,30.80,30.62,13,4,13,0.00
2013-4-23,42,40,38,39,36,29,93,85,69,30.62,30.15,8,3,10,0.04
2013-4-24,62,50,40,52,44,38,93,80,65,30.15,29.79,13,4,13,0.02
2013-4-25,70,56,45,49,36,26,88,51,24,30.27,29.80,21,6,21,0.02
2013-4-26,58,48,42,41,36,29,79,63,50,30.44,30.27,7,2,7,0.00
2013-4-27,56,48,37,44,38,34,87,71,49,30.43,30.30,10,3,10,0.00
2013-4-28,60,49,40,46,40,34,84,70,58,30.36,30.24,13,4,13,0.00
2013-4-29,59,51,44,49,41,32,81,68,49,30.27,30.20,13,4,13,0.00
2013-4-30,63,52,44,45,38,29,74,58,39,30.38,30.24,10,3,10,0.00